Time,TemperatureF,DewpointF,PressureIn,WindDirection,WindDirectionDegrees,WindSpeedMPH,WindSpeedGustMPH,Humidity,HourlyPrecipIn,Conditions,Clouds,dailyrainin,SoftwareType,DateUTC
2014-01-02 00:00:00,-1.7,0.0,29.91,NNE,13,12.6,15.4,0,0.00,,---,0.00,VWS V14.00,2014-01-02 05:00:00,
2014-01-02 00:01:00,19.9,0.0,30.36,North,359,0.0,0.0,0,0.00,,---,0.00,VWS V14.00,2014-01-02 05:01:00,
2014-01-02 00:02:00,-1.7,0.0,29.91,NW,321,8.8,15.4,0,0.00,,---,0.00,VWS V14.00,2014-01-02 05:02:00,
2014-01-02 00:03:00,-1.7,0.0,29.91,North,359,7.1,15.4,0,0.00,,---,0.00,VWS V14.00,2014-01-02 05:03:00,
2014-01-02 00:04:00,-1.7,0.0,29.92,NNW,346,10.5,15.4,0,0.00,,---,0.00,VWS V14.00,2014-01-02 05:04:00,
2014-01-02 00:05:00,-1.7,0.0,29.91,North,350,6.4,17.8,0,0.00,,---,0.00,VWS V14.00,2014-01-02 05:05:00,
2014-01-02 00:06:00,20.2,0.0,30.36,North,359,0.0,0.0,0,0.00,,---,0.00,VWS V14.00,2014-01-02 05:06:00,
2014-01-02 00:07:00,-1.7,0.0,29.91,North,352,8.8,17.8,0,0.00,,---,0.00,VWS V14.00,2014-01-02 05:07:00,
2014-01-02 00:08:00,-1.7,0.0,29.91,NW,316,9.3,17.8,0,0.00,,---,0.00,VWS V14.00,2014-01-02 05:08:00,
2014-01-02 00:09:00,-1.7,0.0,29.91,NE,49,12.7,17.8,0,0.00,,---,0.00,VWS V14.00,2014-01-02 05:09:00,
2014-01-02 00:10:00,-1.7,0.0,29.91,NNE,30,9.7,16.5,0,0.00,,---,0.00,VWS V14.00,2014-01-02 05:10:00,
2014-01-02 00:11:00,20.0,0.0,30.36,North,359,0.0,3.4,0,0.00,,---,0.00,VWS V14.00,2014-01-02 05:11:00,
2014-01-02 00:12:00,-1.6,0.0,29.91,North,6,8.9,16.5,0,0.00,,---,0.00,VWS V14.00,2014-01-02 05:12:00,
2014-01-02 00:13:00,-1.5,0.0,29.91,NNW,339,6.2,16.5,0,0.00,,---,0.00,VWS V14.00,2014-01-02 05:13:00,
2014-01-02 00:14:00,-1.5,0.0,29.91,NNW,330,9.5,16.5,0,0.00,,---,0.00,VWS V14.00,2014-01-02 05:14:00,
2014-01-02 00:16:00,20.0,0.0,30.36,North,359,0.0,0.0,0,0.00,,---,0.00,VWS V14.00,2014-01-02 05:16:00,
2014-01-02 00:21:00,20.1,0.0,30.35,North,359,0.0,0.0,0,0.00,,---,0.00,VWS V14.00,2014-01-02 05:21:00,
2014-01-02 00:26:00,20.0,0.0,30.35,NNE,20,0.0,0.0,0,0.00,,---,0.00,VWS V14.00,2014-01-02 05:26:00,
2014-01-02 00:31:00,20.2,0.0,30.35,NNE,20,0.0,3.1,0,0.00,,---,0.00,VWS V14.00,2014-01-02 05:31:00,
2014-01-02 00:36:00,20.2,0.0,30.35,WNW,298,0.0,0.0,0,0.00,,---,0.00,VWS V14.00,2014-01-02 05:36:00,
2014-01-02 00:41:00,20.3,0.0,30.35,WNW,298,0.0,4.3,0,0.00,,---,0.00,VWS V14.00,2014-01-02 05:41:00,
2014-01-02 00:46:00,19.9,0.0,30.35,NE,35,0.0,0.0,0,0.00,,---,0.00,VWS V14.00,2014-01-02 05:46:00,
2014-01-02 00:51:00,19.8,0.0,30.35,NE,35,0.0,7.0,0,0.00,,---,0.00,VWS V14.00,2014-01-02 05:51:00,
2014-01-02 00:56:00,19.8,0.0,30.35,NE,35,0.0,0.0,0,0.00,,---,0.00,VWS V14.00,2014-01-02 05:56:00,
2014-01-02 01:01:00,19.6,0.0,30.35,NE,35,3.0,0.0,0,0.00,,---,0.00,VWS V14.00,2014-01-02 06:01:00,
2014-01-02 01:06:00,19.7,0.0,30.35,NNE,22,3.0,5.8,0,0.00,,---,0.00,VWS V14.00,2014-01-02 06:06:00,
2014-01-02 01:11:00,19.5,0.0,30.35,North,7,3.4,3.5,0,0.00,,---,0.00,VWS V14.00,2014-01-02 06:11:00,
2014-01-02 01:16:00,19.5,0.0,30.36,NNE,31,4.4,9.5,0,0.00,,---,0.00,VWS V14.00,2014-01-02 06:16:00,
2014-01-02 01:21:00,19.4,0.0,30.35,North,1,3.2,9.1,0,0.00,,---,0.00,VWS V14.00,2014-01-02 06:21:00,
2014-01-02 01:26:00,19.3,0.0,30.35,North,359,3.1,7.7,0,0.00,,---,0.00,VWS V14.00,2014-01-02 06:26:00,
2014-01-02 01:31:00,19.2,0.0,30.35,North,359,0.0,5.2,0,0.00,,---,0.00,VWS V14.00,2014-01-02 06:31:00,
2014-01-02 01:36:00,19.1,0.0,30.36,North,359,0.0,0.0,0,0.00,,---,0.00,VWS V14.00,2014-01-02 06:36:00,
2014-01-02 01:41:00,19.3,0.0,30.35,NE,37,3.0,4.2,0,0.00,,---,0.00,VWS V14.00,2014-01-02 06:41:00,
2014-01-02 01:46:00,19.1,0.0,30.35,NNE,14,0.0,4.8,0,0.00,,---,0.00,VWS V14.00,2014-01-02 06:46:00,
2014-01-02 01:51:00,19.1,0.0,30.35,NNW,330,0.0,5.1,0,0.00,,---,0.00,VWS V14.00,2014-01-02 06:51:00,
2014-01-02 01:56:00,19.0,0.0,30.35,NNE,25,2.7,7.6,0,0.00,,---,0.00,VWS V14.00,2014-01-02 06:56:00,
2014-01-02 02:01:00,18.9,0.0,30.35,NNE,14,0.0,5.5,0,0.00,,---,0.00,VWS V14.00,2014-01-02 07:01:00,
2014-01-02 02:06:00,18.9,0.0,30.35,NNE,25,0.0,5.8,0,0.00,,---,0.00,VWS V14.00,2014-01-02 07:06:00,
2014-01-02 02:07:00,18.9,0.0,30.35,North,11,5.1,6.5,0,0.00,,---,0.00,VWS V14.00,2014-01-02 07:07:00,
2014-01-02 02:12:00,18.7,0.0,30.35,NW,311,0.0,6.5,0,0.00,,---,0.00,VWS V14.00,2014-01-02 07:12:00,
2014-01-02 02:17:00,18.6,0.0,30.35,North,359,0.0,8.4,0,0.00,,---,0.00,VWS V14.00,2014-01-02 07:17:00,
2014-01-02 02:22:00,18.7,0.0,30.36,NE,35,4.5,5.2,0,0.00,,---,0.00,VWS V14.00,2014-01-02 07:22:00,
2014-01-02 02:27:00,18.1,0.0,30.36,North,8,0.0,5.1,0,0.00,,---,0.00,VWS V14.00,2014-01-02 07:27:00,
2014-01-02 02:32:00,18.0,0.0,30.36,NNE,31,3.0,8.4,0,0.00,,---,0.00,VWS V14.00,2014-01-02 07:32:00,
2014-01-02 02:37:00,17.9,0.0,30.36,North,359,3.2,5.3,0,0.00,,---,0.00,VWS V14.00,2014-01-02 07:37:00,
2014-01-02 02:42:00,17.7,0.0,30.36,NW,314,0.0,7.3,0,0.00,,---,0.00,VWS V14.00,2014-01-02 07:42:00,
2014-01-02 02:47:00,17.8,0.0,30.36,NNE,15,0.0,7.0,0,0.00,,---,0.00,VWS V14.00,2014-01-02 07:47:00,
2014-01-02 02:52:00,17.6,0.0,30.36,North,3,0.0,6.5,0,0.00,,---,0.00,VWS V14.00,2014-01-02 07:52:00,
2014-01-02 02:57:00,17.5,0.0,30.36,North,6,5.2,7.0,0,0.00,,---,0.00,VWS V14.00,2014-01-02 07:57:00,
2014-01-02 03:02:00,17.4,0.0,30.36,North,4,0.0,6.8,0,0.00,,---,0.00,VWS V14.00,2014-01-02 08:02:00,
2014-01-02 03:07:00,17.2,0.0,30.35,NW,321,0.0,5.5,0,0.00,,---,0.00,VWS V14.00,2014-01-02 08:07:00,
2014-01-02 03:12:00,17.2,0.0,30.35,North,359,0.0,5.2,0,0.00,,---,0.00,VWS V14.00,2014-01-02 08:12:00,
2014-01-02 03:17:00,16.9,0.0,30.35,NE,56,3.2,6.9,0,0.00,,---,0.00,VWS V14.00,2014-01-02 08:17:00,
2014-01-02 03:22:00,16.8,0.0,30.35,North,359,0.0,8.6,0,0.00,,---,0.00,VWS V14.00,2014-01-02 08:22:00,
2014-01-02 03:27:00,16.9,0.0,30.35,NNE,15,0.0,6.6,0,0.00,,---,0.00,VWS V14.00,2014-01-02 08:27:00,
2014-01-02 03:32:00,16.5,0.0,30.34,North,359,4.5,4.5,0,0.00,,---,0.00,VWS V14.00,2014-01-02 08:32:00,
2014-01-02 03:37:00,16.5,0.0,30.34,NNE,20,0.0,6.8,0,0.00,,---,0.00,VWS V14.00,2014-01-02 08:37:00,
2014-01-02 03:42:00,16.3,0.0,30.34,NNE,25,6.2,6.4,0,0.00,,---,0.00,VWS V14.00,2014-01-02 08:42:00,
2014-01-02 03:47:00,16.2,0.0,30.34,North,359,0.0,7.0,0,0.00,,---,0.00,VWS V14.00,2014-01-02 08:47:00,
2014-01-02 03:52:00,16.4,0.0,30.34,NW,326,5.7,6.8,0,0.00,,---,0.00,VWS V14.00,2014-01-02 08:52:00,
2014-01-02 03:57:00,16.3,0.0,30.34,North,4,0.0,7.3,0,0.00,,---,0.00,VWS V14.00,2014-01-02 08:57:00,
2014-01-02 04:02:00,16.3,0.0,30.34,NNE,28,0.0,3.5,0,0.00,,---,0.00,VWS V14.00,2014-01-02 09:02:00,
2014-01-02 04:07:00,16.2,0.0,30.34,NW,321,7.1,7.5,0,0.00,,---,0.00,VWS V14.00,2014-01-02 09:07:00,
2014-01-02 04:12:00,16.0,0.0,30.34,North,4,0.0,8.5,0,0.00,,---,0.00,VWS V14.00,2014-01-02 09:12:00,
2014-01-02 04:17:00,16.0,0.0,30.34,NE,53,0.0,8.6,0,0.00,,---,0.00,VWS V14.00,2014-01-02 09:17:00,
2014-01-02 04:22:00,16.1,0.0,30.35,NW,322,4.3,6.0,0,0.00,,---,0.00,VWS V14.00,2014-01-02 09:22:00,
2014-01-02 04:27:00,16.1,0.0,30.35,NNE,20,0.0,6.5,0,0.00,,---,0.00,VWS V14.00,2014-01-02 09:27:00,
2014-01-02 04:32:00,16.3,0.0,30.34,NNW,328,0.0,6.6,0,0.00,,---,0.00,VWS V14.00,2014-01-02 09:32:00,
2014-01-02 04:37:00,16.2,0.0,30.34,North,359,2.9,6.5,0,0.00,,---,0.00,VWS V14.00,2014-01-02 09:37:00,
2014-01-02 04:42:00,16.2,0.0,30.34,NNE,25,4.6,6.6,0,0.00,,---,0.00,VWS V14.00,2014-01-02 09:42:00,
2014-01-02 04:47:00,16.3,0.0,30.34,NW,322,4.8,5.5,0,0.00,,---,0.00,VWS V14.00,2014-01-02 09:47:00,
2014-01-02 04:52:00,16.4,0.0,30.34,North,359,2.5,6.3,0,0.00,,---,0.00,VWS V14.00,2014-01-02 09:52:00,
2014-01-02 04:57:00,16.2,0.0,30.34,NW,315,6.8,7.5,0,0.00,,---,0.00,VWS V14.00,2014-01-02 09:57:00,
2014-01-02 05:02:00,16.2,0.0,30.33,North,359,4.2,7.3,0,0.00,,---,0.00,VWS V14.00,2014-01-02 10:02:00,
2014-01-02 05:07:00,16.0,0.0,30.33,NW,316,2.8,9.9,0,0.00,,---,0.00,VWS V14.00,2014-01-02 10:07:00,
2014-01-02 05:12:00,16.1,0.0,30.33,NNW,328,0.0,6.4,0,0.00,,---,0.00,VWS V14.00,2014-01-02 10:12:00,
2014-01-02 05:17:00,16.3,0.0,30.33,NW,304,5.2,6.1,0,0.00,,---,0.00,VWS V14.00,2014-01-02 10:17:00,
2014-01-02 05:22:00,16.1,0.0,30.33,NNE,25,0.0,7.9,0,0.00,,---,0.00,VWS V14.00,2014-01-02 10:22:00,
2014-01-02 05:27:00,16.2,0.0,30.33,NE,45,4.5,7.1,0,0.00,,---,0.00,VWS V14.00,2014-01-02 10:27:00,
2014-01-02 05:31:00,16.3,0.0,30.33,North,359,2.9,7.7,0,0.00,,---,0.00,VWS V14.00,2014-01-02 10:31:00,
2014-01-02 05:36:00,16.5,0.0,30.33,NNE,22,6.5,8.8,0,0.00,,---,0.00,VWS V14.00,2014-01-02 10:36:00,
2014-01-02 05:41:00,16.2,0.0,30.33,NNE,25,6.2,10.3,0,0.00,,---,0.00,VWS V14.00,2014-01-02 10:41:00,
2014-01-02 05:46:00,16.1,0.0,30.33,NNE,31,4.7,9.4,0,0.00,,---,0.00,VWS V14.00,2014-01-02 10:46:00,
2014-01-02 05:51:00,16.0,0.0,30.33,NNE,30,4.8,8.1,0,0.00,,---,0.00,VWS V14.00,2014-01-02 10:51:00,
2014-01-02 05:56:00,15.8,0.0,30.33,NE,34,3.5,10.4,0,0.00,,---,0.00,VWS V14.00,2014-01-02 10:56:00,
2014-01-02 06:01:00,15.7,0.0,30.33,North,359,3.4,11.3,0,0.00,,---,0.00,VWS V14.00,2014-01-02 11:01:00,
2014-01-02 06:06:00,15.4,0.0,30.33,North,350,9.0,10.9,0,0.00,,---,0.00,VWS V14.00,2014-01-02 11:06:00,
2014-01-02 06:11:00,15.0,0.0,30.33,NNE,15,8.2,14.1,0,0.00,,---,0.00,VWS V14.00,2014-01-02 11:11:00,
2014-01-02 06:16:00,14.9,0.0,30.33,NW,319,8.8,10.0,0,0.00,,---,0.00,VWS V14.00,2014-01-02 11:16:00,
2014-01-02 06:21:00,15.0,0.0,30.33,NW,316,10.4,10.8,0,0.00,,---,0.00,VWS V14.00,2014-01-02 11:21:00,
2014-01-02 06:26:00,14.5,0.0,30.32,North,6,9.2,15.8,0,0.00,,---,0.00,VWS V14.00,2014-01-02 11:26:00,
2014-01-02 06:31:00,14.5,0.0,30.32,NNE,22,7.0,10.6,0,0.00,,---,0.00,VWS V14.00,2014-01-02 11:31:00,
2014-01-02 06:36:00,14.2,0.0,30.32,NNE,15,6.0,11.7,0,0.00,,---,0.00,VWS V14.00,2014-01-02 11:36:00,
2014-01-02 06:41:00,14.1,0.0,30.32,NNW,333,7.3,13.5,0,0.00,,---,0.00,VWS V14.00,2014-01-02 11:41:00,
2014-01-02 06:46:00,13.8,0.0,30.32,NNW,339,8.6,12.4,0,0.00,,---,0.00,VWS V14.00,2014-01-02 11:46:00,
2014-01-02 06:51:00,13.4,0.0,30.32,North,359,5.6,16.3,0,0.00,,---,0.00,VWS V14.00,2014-01-02 11:51:00,
2014-01-02 06:56:00,13.3,0.0,30.32,North,3,5.4,14.0,0,0.00,,---,0.00,VWS V14.00,2014-01-02 11:56:00,
2014-01-02 07:01:00,13.2,0.0,30.33,NNE,25,5.5,10.8,0,0.00,,---,0.00,VWS V14.00,2014-01-02 12:01:00,
2014-01-02 07:06:00,13.0,0.0,30.33,NNE,14,0.0,12.0,0,0.00,,---,0.00,VWS V14.00,2014-01-02 12:06:00,
2014-01-02 07:11:00,12.9,0.0,30.32,NE,48,4.3,10.4,0,0.00,,---,0.00,VWS V14.00,2014-01-02 12:11:00,
2014-01-02 07:16:00,12.7,0.0,30.32,NW,322,4.2,11.7,0,0.00,,---,0.00,VWS V14.00,2014-01-02 12:16:00,
2014-01-02 07:21:00,12.4,0.0,30.32,NNW,335,7.3,12.1,0,0.00,,---,0.00,VWS V14.00,2014-01-02 12:21:00,
2014-01-02 07:26:00,12.0,0.0,30.32,North,1,6.0,13.1,0,0.00,,---,0.00,VWS V14.00,2014-01-02 12:26:00,
2014-01-02 07:31:00,12.0,0.0,30.32,North,359,8.5,11.2,0,0.00,,---,0.00,VWS V14.00,2014-01-02 12:31:00,
2014-01-02 07:36:00,11.9,0.0,30.32,North,359,5.0,14.5,0,0.00,,---,0.00,VWS V14.00,2014-01-02 12:36:00,
2014-01-02 07:41:00,11.8,0.0,30.32,NNE,14,6.1,10.1,0,0.00,,---,0.00,VWS V14.00,2014-01-02 12:41:00,
2014-01-02 07:46:00,11.6,0.0,30.32,NW,325,7.9,12.7,0,0.00,,---,0.00,VWS V14.00,2014-01-02 12:46:00,
2014-01-02 07:51:00,11.6,0.0,30.32,NNW,339,9.8,11.3,0,0.00,,---,0.00,VWS V14.00,2014-01-02 12:51:00,
2014-01-02 07:56:00,11.4,0.0,30.32,North,1,9.8,12.5,0,0.00,,---,0.00,VWS V14.00,2014-01-02 12:56:00,
2014-01-02 08:01:00,11.3,0.0,30.32,North,353,5.5,13.7,0,0.00,,---,0.00,VWS V14.00,2014-01-02 13:01:00,
2014-01-02 08:06:00,11.2,0.0,30.32,North,359,4.5,12.2,0,0.00,,---,0.00,VWS V14.00,2014-01-02 13:06:00,
2014-01-02 08:11:00,11.3,0.0,30.31,North,11,4.9,14.5,0,0.00,,---,0.00,VWS V14.00,2014-01-02 13:11:00,
2014-01-02 08:16:00,11.2,0.0,30.32,NE,52,8.5,14.7,0,0.00,,---,0.00,VWS V14.00,2014-01-02 13:16:00,
2014-01-02 08:21:00,11.1,0.0,30.32,North,4,8.0,15.2,0,0.00,,---,0.00,VWS V14.00,2014-01-02 13:21:00,
2014-01-02 08:26:00,10.9,0.0,30.32,NNE,20,7.3,15.2,0,0.00,,---,0.00,VWS V14.00,2014-01-02 13:26:00,
2014-01-02 08:31:00,11.1,0.0,30.32,NNE,22,10.6,19.5,0,0.00,,---,0.00,VWS V14.00,2014-01-02 13:31:00,
2014-01-02 08:36:00,11.2,0.0,30.32,North,359,4.4,13.4,0,0.00,,---,0.00,VWS V14.00,2014-01-02 13:36:00,
2014-01-02 08:41:00,11.3,0.0,30.32,North,359,8.0,12.7,0,0.00,,---,0.00,VWS V14.00,2014-01-02 13:41:00,
2014-01-02 08:46:00,11.3,0.0,30.32,NW,314,7.3,12.6,0,0.00,,---,0.00,VWS V14.00,2014-01-02 13:46:00,
2014-01-02 08:51:00,10.9,0.0,30.32,NNE,27,9.7,12.6,0,0.00,,---,0.00,VWS V14.00,2014-01-02 13:51:00,
2014-01-02 08:56:00,10.9,0.0,30.32,NNW,329,6.5,18.4,0,0.00,,---,0.00,VWS V14.00,2014-01-02 13:56:00,
2014-01-02 09:01:00,11.0,0.0,30.33,North,359,6.0,12.7,0,0.00,,---,0.00,VWS V14.00,2014-01-02 14:01:00,
2014-01-02 09:06:00,10.7,0.0,30.32,North,10,8.6,15.0,0,0.00,,---,0.00,VWS V14.00,2014-01-02 14:06:00,
2014-01-02 09:11:00,10.7,0.0,30.32,NE,55,5.2,12.9,0,0.00,,---,0.00,VWS V14.00,2014-01-02 14:11:00,
2014-01-02 09:16:00,10.8,0.0,30.33,North,359,5.7,15.0,0,0.00,,---,0.00,VWS V14.00,2014-01-02 14:16:00,
2014-01-02 09:21:00,10.6,0.0,30.32,North,3,5.9,13.9,0,0.00,,---,0.00,VWS V14.00,2014-01-02 14:21:00,
2014-01-02 09:26:00,10.4,0.0,30.32,North,359,6.5,14.8,0,0.00,,---,0.00,VWS V14.00,2014-01-02 14:26:00,
2014-01-02 09:31:00,10.3,0.0,30.31,NW,322,13.5,14.5,0,0.00,,---,0.00,VWS V14.00,2014-01-02 14:31:00,
2014-01-02 09:36:00,10.3,0.0,30.31,NNW,340,6.8,14.5,0,0.00,,---,0.00,VWS V14.00,2014-01-02 14:36:00,
2014-01-02 09:41:00,10.0,0.0,30.31,NNW,336,6.1,15.0,0,0.00,,---,0.00,VWS V14.00,2014-01-02 14:41:00,
2014-01-02 09:46:00,9.9,0.0,30.31,NW,322,9.9,14.4,0,0.00,,---,0.00,VWS V14.00,2014-01-02 14:46:00,
2014-01-02 09:51:00,10.2,0.0,30.31,North,359,5.4,19.1,0,0.00,,---,0.00,VWS V14.00,2014-01-02 14:51:00,
2014-01-02 09:56:00,10.3,0.0,30.31,North,6,8.8,19.1,0,0.00,,---,0.00,VWS V14.00,2014-01-02 14:56:00,
2014-01-02 10:01:00,10.1,0.0,30.31,NNE,17,7.7,13.8,0,0.00,,---,0.00,VWS V14.00,2014-01-02 15:01:00,
2014-01-02 10:06:00,9.8,0.0,30.31,North,359,7.7,15.7,0,0.00,,---,0.00,VWS V14.00,2014-01-02 15:06:00,
2014-01-02 10:11:00,9.7,0.0,30.31,North,359,6.3,20.1,0,0.00,,---,0.00,VWS V14.00,2014-01-02 15:11:00,
2014-01-02 10:16:00,9.4,0.0,30.31,NE,39,8.9,15.8,0,0.00,,---,0.00,VWS V14.00,2014-01-02 15:16:00,
2014-01-02 10:21:00,9.5,0.0,30.30,North,359,6.8,16.4,0,0.00,,---,0.00,VWS V14.00,2014-01-02 15:21:00,
2014-01-02 10:26:00,9.5,0.0,30.29,NNE,30,9.6,15.0,0,0.00,,---,0.00,VWS V14.00,2014-01-02 15:26:00,
2014-01-02 10:31:00,9.5,0.0,30.29,NW,318,9.9,17.8,0,0.00,,---,0.00,VWS V14.00,2014-01-02 15:31:00,
2014-01-02 10:36:00,9.2,0.0,30.29,North,359,8.7,16.0,0,0.00,,---,0.00,VWS V14.00,2014-01-02 15:36:00,
2014-01-02 10:41:00,9.3,0.0,30.29,NE,39,10.4,15.2,0,0.00,,---,0.00,VWS V14.00,2014-01-02 15:41:00,
2014-01-02 10:46:00,9.2,0.0,30.28,North,1,5.2,15.7,0,0.00,,---,0.00,VWS V14.00,2014-01-02 15:46:00,
2014-01-02 10:51:00,9.4,0.0,30.28,North,4,9.2,17.5,0,0.00,,---,0.00,VWS V14.00,2014-01-02 15:51:00,
2014-01-02 10:56:00,9.4,0.0,30.28,NNE,32,7.2,14.8,0,0.00,,---,0.00,VWS V14.00,2014-01-02 15:56:00,
2014-01-02 11:01:00,9.4,0.0,30.27,North,7,6.8,21.4,0,0.00,,---,0.00,VWS V14.00,2014-01-02 16:01:00,
2014-01-02 11:06:00,9.2,0.0,30.26,North,349,10.6,17.0,0,0.00,,---,0.00,VWS V14.00,2014-01-02 16:06:00,
2014-01-02 11:11:00,9.3,0.0,30.26,NNW,336,11.1,16.6,0,0.00,,---,0.00,VWS V14.00,2014-01-02 16:11:00,
2014-01-02 11:16:00,9.1,0.0,30.26,North,6,5.5,17.0,0,0.00,,---,0.00,VWS V14.00,2014-01-02 16:16:00,
2014-01-02 11:21:00,9.1,0.0,30.26,NNE,32,6.1,15.3,0,0.00,,---,0.00,VWS V14.00,2014-01-02 16:21:00,
2014-01-02 11:26:00,9.2,0.0,30.25,ENE,62,10.2,17.3,0,0.00,,---,0.00,VWS V14.00,2014-01-02 16:26:00,
2014-01-02 11:31:00,9.3,0.0,30.24,WNW,295,8.0,12.0,0,0.00,,---,0.00,VWS V14.00,2014-01-02 16:31:00,
2014-01-02 11:36:00,9.1,0.0,30.24,North,359,5.8,14.5,0,0.00,,---,0.00,VWS V14.00,2014-01-02 16:36:00,
2014-01-02 11:41:00,9.0,0.0,30.23,North,353,10.4,14.4,0,0.00,,---,0.00,VWS V14.00,2014-01-02 16:41:00,
2014-01-02 11:46:00,9.2,0.0,30.23,NNE,25,9.9,16.6,0,0.00,,---,0.00,VWS V14.00,2014-01-02 16:46:00,
2014-01-02 11:51:00,9.2,0.0,30.22,NNE,18,14.7,16.2,0,0.00,,---,0.00,VWS V14.00,2014-01-02 16:51:00,
2014-01-02 11:56:00,8.9,0.0,30.22,NE,48,7.5,15.2,0,0.00,,---,0.00,VWS V14.00,2014-01-02 16:56:00,
2014-01-02 12:01:00,8.8,0.0,30.22,NE,45,9.6,13.4,0,0.00,,---,0.00,VWS V14.00,2014-01-02 17:01:00,
2014-01-02 12:06:00,8.7,0.0,30.21,North,349,6.0,17.2,0,0.00,,---,0.00,VWS V14.00,2014-01-02 17:06:00,
2014-01-02 12:11:00,9.0,0.0,30.20,NW,319,7.6,14.7,0,0.00,,---,0.00,VWS V14.00,2014-01-02 17:11:00,
2014-01-02 12:16:00,8.8,0.0,30.20,NNW,335,7.0,18.4,0,0.00,,---,0.00,VWS V14.00,2014-01-02 17:16:00,
2014-01-02 12:21:00,8.6,0.0,30.20,NNW,329,10.4,12.7,0,0.00,,---,0.00,VWS V14.00,2014-01-02 17:21:00,
2014-01-02 12:26:00,8.7,0.0,30.20,NE,38,14.0,18.6,0,0.00,,---,0.00,VWS V14.00,2014-01-02 17:26:00,
2014-01-02 12:31:00,8.8,0.0,30.19,NNE,30,7.4,14.8,0,0.00,,---,0.00,VWS V14.00,2014-01-02 17:31:00,
2014-01-02 12:36:00,8.6,0.0,30.19,NNE,27,8.1,15.4,0,0.00,,---,0.00,VWS V14.00,2014-01-02 17:36:00,
2014-01-02 12:41:00,8.7,0.0,30.18,NE,37,13.7,14.4,0,0.00,,---,0.00,VWS V14.00,2014-01-02 17:41:00,
2014-01-02 12:46:00,8.3,0.0,30.19,NNW,332,10.1,19.4,0,0.00,,---,0.00,VWS V14.00,2014-01-02 17:46:00,
2014-01-02 12:51:00,8.2,0.0,30.18,North,4,12.6,15.7,0,0.00,,---,0.00,VWS V14.00,2014-01-02 17:51:00,
2014-01-02 12:56:00,8.4,0.0,30.18,NNE,18,7.0,14.7,0,0.00,,---,0.00,VWS V14.00,2014-01-02 17:56:00,
2014-01-02 13:01:00,8.1,0.0,30.18,North,356,8.5,14.7,0,0.00,,---,0.00,VWS V14.00,2014-01-02 18:01:00,
2014-01-02 13:06:00,8.4,0.0,30.17,North,10,6.7,20.3,0,0.00,,---,0.00,VWS V14.00,2014-01-02 18:06:00,
2014-01-02 13:11:00,8.0,0.0,30.17,North,359,11.2,16.0,0,0.00,,---,0.00,VWS V14.00,2014-01-02 18:11:00,
2014-01-02 13:16:00,8.2,0.0,30.17,NNE,21,7.9,18.3,0,0.00,,---,0.00,VWS V14.00,2014-01-02 18:16:00,
2014-01-02 13:21:00,7.8,0.0,30.16,North,359,12.2,16.8,0,0.00,,---,0.00,VWS V14.00,2014-01-02 18:21:00,
2014-01-02 13:26:00,7.8,0.0,30.15,North,10,12.8,18.3,0,0.00,,---,0.00,VWS V14.00,2014-01-02 18:26:00,
2014-01-02 13:31:00,7.7,0.0,30.15,North,359,9.1,19.8,0,0.00,,---,0.00,VWS V14.00,2014-01-02 18:31:00,
2014-01-02 13:36:00,7.5,0.0,30.15,NNE,15,5.6,17.0,0,0.00,,---,0.00,VWS V14.00,2014-01-02 18:36:00,
2014-01-02 13:41:00,7.0,0.0,30.17,NNE,14,7.8,14.4,0,0.00,,---,0.00,VWS V14.00,2014-01-02 18:41:00,
2014-01-02 13:46:00,7.2,0.0,30.15,North,359,8.5,16.0,0,0.00,,---,0.00,VWS V14.00,2014-01-02 18:46:00,
2014-01-02 13:51:00,7.2,0.0,30.15,North,6,9.9,17.3,0,0.00,,---,0.00,VWS V14.00,2014-01-02 18:51:00,
2014-01-02 13:56:00,6.9,0.0,30.14,NNE,24,5.9,14.9,0,0.00,,---,0.00,VWS V14.00,2014-01-02 18:56:00,
2014-01-02 14:01:00,6.7,0.0,30.15,NNE,15,9.9,17.3,0,0.00,,---,0.00,VWS V14.00,2014-01-02 19:01:00,
2014-01-02 14:06:00,6.7,0.0,30.15,North,356,11.7,12.4,0,0.00,,---,0.00,VWS V14.00,2014-01-02 19:06:00,
2014-01-02 14:11:00,6.5,0.0,30.15,NNE,14,7.0,16.1,0,0.00,,---,0.00,VWS V14.00,2014-01-02 19:11:00,
2014-01-02 14:16:00,6.4,0.0,30.15,NNW,329,4.8,16.0,0,0.00,,---,0.00,VWS V14.00,2014-01-02 19:16:00,
2014-01-02 14:21:00,6.4,0.0,30.15,NE,44,6.3,13.2,0,0.00,,---,0.00,VWS V14.00,2014-01-02 19:21:00,
2014-01-02 14:26:00,6.3,0.0,30.16,NE,51,7.0,14.2,0,0.00,,---,0.00,VWS V14.00,2014-01-02 19:26:00,
2014-01-02 14:31:00,6.2,0.0,30.16,NE,46,6.0,17.8,0,0.00,,---,0.00,VWS V14.00,2014-01-02 19:31:00,
2014-01-02 14:36:00,6.3,0.0,30.15,North,359,6.6,15.9,0,0.00,,---,0.00,VWS V14.00,2014-01-02 19:36:00,
2014-01-02 14:41:00,6.2,0.0,30.14,NNE,30,6.9,14.9,0,0.00,,---,0.00,VWS V14.00,2014-01-02 19:41:00,
2014-01-02 14:46:00,6.1,0.0,30.14,NW,305,12.4,15.7,0,0.00,,---,0.00,VWS V14.00,2014-01-02 19:46:00,
2014-01-02 14:51:00,5.8,0.0,30.14,NNE,22,11.9,15.3,0,0.00,,---,0.00,VWS V14.00,2014-01-02 19:51:00,
2014-01-02 14:56:00,5.7,0.0,30.14,NNW,343,8.1,15.6,0,0.00,,---,0.00,VWS V14.00,2014-01-02 19:56:00,
2014-01-02 15:01:00,5.7,0.0,30.13,NE,34,8.5,15.5,0,0.00,,---,0.00,VWS V14.00,2014-01-02 20:01:00,
2014-01-02 15:06:00,5.5,0.0,30.13,NW,323,9.9,17.6,0,0.00,,---,0.00,VWS V14.00,2014-01-02 20:06:00,
2014-01-02 15:11:00,5.8,0.0,30.13,NNE,25,9.0,15.9,0,0.00,,---,0.00,VWS V14.00,2014-01-02 20:11:00,
2014-01-02 15:16:00,5.7,0.0,30.11,NNE,28,14.7,16.5,0,0.00,,---,0.00,VWS V14.00,2014-01-02 20:16:00,
2014-01-02 15:21:00,5.6,0.0,30.11,NNW,338,13.9,17.1,0,0.00,,---,0.00,VWS V14.00,2014-01-02 20:21:00,
2014-01-02 15:26:00,5.6,0.0,30.11,North,359,7.5,17.2,0,0.00,,---,0.00,VWS V14.00,2014-01-02 20:26:00,
2014-01-02 15:31:00,5.7,0.0,30.11,East,79,10.3,19.1,0,0.00,,---,0.00,VWS V14.00,2014-01-02 20:31:00,
2014-01-02 15:36:00,5.6,0.0,30.10,NNE,27,6.2,13.7,0,0.00,,---,0.00,VWS V14.00,2014-01-02 20:36:00,
2014-01-02 15:41:00,5.5,0.0,30.10,NNW,347,8.1,14.9,0,0.00,,---,0.00,VWS V14.00,2014-01-02 20:41:00,
2014-01-02 15:46:00,5.6,0.0,30.09,NNE,17,10.4,17.5,0,0.00,,---,0.00,VWS V14.00,2014-01-02 20:46:00,
2014-01-02 15:51:00,5.4,0.0,30.08,North,357,6.7,21.4,0,0.00,,---,0.00,VWS V14.00,2014-01-02 20:51:00,
2014-01-02 15:56:00,5.3,0.0,30.09,North,356,17.1,17.6,0,0.00,,---,0.00,VWS V14.00,2014-01-02 20:56:00,
2014-01-02 16:01:00,5.4,0.0,30.10,NNE,18,9.1,17.8,0,0.00,,---,0.00,VWS V14.00,2014-01-02 21:01:00,
2014-01-02 16:06:00,5.3,0.0,30.10,NNE,20,6.2,15.1,0,0.00,,---,0.00,VWS V14.00,2014-01-02 21:06:00,
2014-01-02 16:11:00,5.2,0.0,30.10,North,349,10.3,15.2,0,0.00,,---,0.00,VWS V14.00,2014-01-02 21:11:00,
2014-01-02 16:16:00,5.2,0.0,30.08,NE,34,7.2,19.1,0,0.00,,---,0.00,VWS V14.00,2014-01-02 21:16:00,
2014-01-02 16:21:00,5.0,0.0,30.08,North,359,7.3,17.3,0,0.00,,---,0.00,VWS V14.00,2014-01-02 21:21:00,
2014-01-02 16:26:00,4.7,0.0,30.07,NNW,330,6.8,17.1,0,0.00,,---,0.00,VWS V14.00,2014-01-02 21:26:00,
2014-01-02 16:31:00,4.6,0.0,30.07,NNE,17,9.0,15.7,0,0.00,,---,0.00,VWS V14.00,2014-01-02 21:31:00,
2014-01-02 16:36:00,4.6,0.0,30.06,North,357,11.9,17.1,0,0.00,,---,0.00,VWS V14.00,2014-01-02 21:36:00,
2014-01-02 16:41:00,4.4,0.0,30.06,North,8,10.3,17.5,0,0.00,,---,0.00,VWS V14.00,2014-01-02 21:41:00,
2014-01-02 16:46:00,4.3,0.0,30.06,NE,38,6.8,19.4,0,0.00,,---,0.00,VWS V14.00,2014-01-02 21:46:00,
2014-01-02 16:51:00,4.4,0.0,30.07,North,359,11.2,20.6,0,0.00,,---,0.00,VWS V14.00,2014-01-02 21:51:00,
2014-01-02 16:56:00,4.3,0.0,30.08,NNE,31,9.9,14.7,0,0.00,,---,0.00,VWS V14.00,2014-01-02 21:56:00,
2014-01-02 17:01:00,4.3,0.0,30.07,WNW,292,16.3,16.3,0,0.00,,---,0.00,VWS V14.00,2014-01-02 22:01:00,
2014-01-02 17:06:00,4.3,0.0,30.08,North,8,6.3,16.3,0,0.00,,---,0.00,VWS V14.00,2014-01-02 22:06:00,
2014-01-02 17:11:00,4.1,0.0,30.07,North,350,14.7,16.5,0,0.00,,---,0.00,VWS V14.00,2014-01-02 22:11:00,
2014-01-02 17:16:00,3.8,0.0,30.07,NNE,32,8.5,19.8,0,0.00,,---,0.00,VWS V14.00,2014-01-02 22:16:00,
2014-01-02 17:21:00,3.7,0.0,30.07,NNE,14,9.4,16.7,0,0.00,,---,0.00,VWS V14.00,2014-01-02 22:21:00,
2014-01-02 17:26:00,3.6,0.0,30.08,NE,35,7.6,17.1,0,0.00,,---,0.00,VWS V14.00,2014-01-02 22:26:00,
2014-01-02 17:31:00,3.1,0.0,30.07,North,359,9.1,15.6,0,0.00,,---,0.00,VWS V14.00,2014-01-02 22:31:00,
2014-01-02 17:35:00,3.0,0.0,30.06,NNE,32,11.1,14.8,0,0.00,,---,0.00,VWS V14.00,2014-01-02 22:35:00,
2014-01-02 17:40:00,2.9,0.0,30.06,North,6,8.1,16.3,0,0.00,,---,0.00,VWS V14.00,2014-01-02 22:40:00,
2014-01-02 17:45:00,2.7,0.0,30.06,NNE,27,8.0,15.7,0,0.00,,---,0.00,VWS V14.00,2014-01-02 22:45:00,
2014-01-02 17:50:00,3.0,0.0,30.07,NNE,22,11.5,19.9,0,0.00,,---,0.00,VWS V14.00,2014-01-02 22:50:00,
2014-01-02 17:55:00,2.7,0.0,30.06,North,359,8.0,13.2,0,0.00,,---,0.00,VWS V14.00,2014-01-02 22:55:00,
2014-01-02 18:00:00,2.7,0.0,30.06,NW,316,11.4,17.6,0,0.00,,---,0.00,VWS V14.00,2014-01-02 23:00:00,
2014-01-02 18:05:00,2.5,0.0,30.06,NNE,28,11.2,16.6,0,0.00,,---,0.00,VWS V14.00,2014-01-02 23:05:00,
2014-01-02 18:10:00,2.5,0.0,30.07,NE,42,6.9,15.5,0,0.00,,---,0.00,VWS V14.00,2014-01-02 23:10:00,
2014-01-02 18:15:00,2.1,0.0,30.07,North,359,5.9,17.1,0,0.00,,---,0.00,VWS V14.00,2014-01-02 23:15:00,
2014-01-02 18:20:00,1.9,0.0,30.06,NNW,336,11.2,17.1,0,0.00,,---,0.00,VWS V14.00,2014-01-02 23:20:00,
2014-01-02 18:25:00,1.8,0.0,30.05,North,359,7.4,18.3,0,0.00,,---,0.00,VWS V14.00,2014-01-02 23:25:00,
2014-01-02 18:30:00,1.6,0.0,30.06,NE,34,7.7,14.3,0,0.00,,---,0.00,VWS V14.00,2014-01-02 23:30:00,
2014-01-02 18:35:00,1.5,0.0,30.05,North,11,7.8,17.3,0,0.00,,---,0.00,VWS V14.00,2014-01-02 23:35:00,
2014-01-02 18:40:00,1.4,0.0,30.05,North,11,8.4,17.8,0,0.00,,---,0.00,VWS V14.00,2014-01-02 23:40:00,
2014-01-02 18:45:00,1.6,0.0,30.05,NNW,342,6.6,13.0,0,0.00,,---,0.00,VWS V14.00,2014-01-02 23:45:00,
2014-01-02 18:50:00,1.6,0.0,30.05,North,359,6.5,13.7,0,0.00,,---,0.00,VWS V14.00,2014-01-02 23:50:00,
2014-01-02 18:55:00,1.4,0.0,30.06,NNW,338,7.5,16.7,0,0.00,,---,0.00,VWS V14.00,2014-01-02 23:55:00,
2014-01-02 19:00:00,1.1,0.0,30.05,North,353,9.1,15.8,0,0.00,,---,0.00,VWS V14.00,2014-01-03 00:00:00,
2014-01-02 19:05:00,1.2,0.0,30.05,North,359,5.0,19.1,0,0.00,,---,0.00,VWS V14.00,2014-01-03 00:05:00,
2014-01-02 19:10:00,1.0,0.0,30.04,North,359,6.6,15.8,0,0.00,,---,0.00,VWS V14.00,2014-01-03 00:10:00,
2014-01-02 19:15:00,0.9,0.0,30.05,NNE,20,7.5,17.4,0,0.00,,---,0.00,VWS V14.00,2014-01-03 00:15:00,
2014-01-02 19:20:00,1.0,0.0,30.04,NW,318,10.0,16.2,0,0.00,,---,0.00,VWS V14.00,2014-01-03 00:20:00,
2014-01-02 19:25:00,0.9,0.0,30.04,North,7,9.9,18.3,0,0.00,,---,0.00,VWS V14.00,2014-01-03 00:25:00,
2014-01-02 19:30:00,1.0,0.0,30.03,North,357,13.2,15.3,0,0.00,,---,0.00,VWS V14.00,2014-01-03 00:30:00,
2014-01-02 19:35:00,0.9,0.0,30.02,North,359,6.0,15.8,0,0.00,,---,0.00,VWS V14.00,2014-01-03 00:35:00,
2014-01-02 19:40:00,0.6,0.0,30.02,ENE,68,12.4,14.9,0,0.00,,---,0.00,VWS V14.00,2014-01-03 00:40:00,
2014-01-02 19:45:00,0.6,0.0,30.02,NNE,18,13.7,18.6,0,0.00,,---,0.00,VWS V14.00,2014-01-03 00:45:00,
2014-01-02 19:50:00,0.5,0.0,30.02,NNW,346,9.1,16.9,0,0.00,,---,0.00,VWS V14.00,2014-01-03 00:50:00,
2014-01-02 19:55:00,0.3,0.0,30.02,NE,35,9.6,16.0,0,0.00,,---,0.00,VWS V14.00,2014-01-03 00:55:00,
2014-01-02 20:00:00,0.4,0.0,30.02,NNW,332,15.9,17.4,0,0.00,,---,0.00,VWS V14.00,2014-01-03 01:00:00,
2014-01-02 20:05:00,0.4,0.0,30.02,NNW,343,8.7,20.7,0,0.00,,---,0.00,VWS V14.00,2014-01-03 01:05:00,
2014-01-02 20:10:00,0.6,0.0,30.02,NW,316,6.6,13.7,0,0.00,,---,0.00,VWS V14.00,2014-01-03 01:10:00,
2014-01-02 20:15:00,0.3,0.0,30.01,NNE,32,9.4,16.8,0,0.00,,---,0.00,VWS V14.00,2014-01-03 01:15:00,
2014-01-02 20:20:00,0.3,0.0,30.01,North,359,9.2,22.8,0,0.00,,---,0.00,VWS V14.00,2014-01-03 01:20:00,
2014-01-02 20:25:00,0.2,0.0,30.01,NNW,332,9.9,13.9,0,0.00,,---,0.00,VWS V14.00,2014-01-03 01:25:00,
2014-01-02 20:30:00,-0.1,0.0,30.01,NNE,31,8.6,18.4,0,0.00,,---,0.00,VWS V14.00,2014-01-03 01:30:00,
2014-01-02 20:35:00,-0.1,0.0,30.00,North,357,7.4,15.8,0,0.00,,---,0.00,VWS V14.00,2014-01-03 01:35:00,
2014-01-02 20:40:00,-0.2,0.0,30.00,NNE,14,12.6,16.5,0,0.00,,---,0.00,VWS V14.00,2014-01-03 01:40:00,
2014-01-02 20:45:00,-0.2,0.0,30.00,NE,44,6.8,15.7,0,0.00,,---,0.00,VWS V14.00,2014-01-03 01:45:00,
2014-01-02 20:50:00,-0.2,0.0,30.00,NNW,335,8.8,14.7,0,0.00,,---,0.00,VWS V14.00,2014-01-03 01:50:00,
2014-01-02 20:55:00,-0.3,0.0,30.00,North,359,8.5,21.7,0,0.00,,---,0.00,VWS V14.00,2014-01-03 01:55:00,
2014-01-02 21:00:00,-0.3,0.0,30.00,WNW,285,9.5,15.8,0,0.00,,---,0.00,VWS V14.00,2014-01-03 02:00:00,
2014-01-02 21:05:00,-0.3,0.0,29.99,NNW,328,9.2,17.1,0,0.00,,---,0.00,VWS V14.00,2014-01-03 02:05:00,
2014-01-02 21:10:00,-0.4,0.0,29.98,North,354,7.8,16.8,0,0.00,,---,0.00,VWS V14.00,2014-01-03 02:10:00,
2014-01-02 21:15:00,-0.6,0.0,29.97,North,359,9.7,12.5,0,0.00,,---,0.00,VWS V14.00,2014-01-03 02:15:00,
2014-01-02 21:20:00,-0.8,0.0,29.97,NNE,25,7.2,16.8,0,0.00,,---,0.00,VWS V14.00,2014-01-03 02:20:00,
2014-01-02 21:25:00,-1.0,0.0,29.98,NE,49,6.1,14.8,0,0.00,,---,0.00,VWS V14.00,2014-01-03 02:25:00,
2014-01-02 21:30:00,-0.9,0.0,29.98,North,7,5.9,19.5,0,0.00,,---,0.00,VWS V14.00,2014-01-03 02:30:00,
2014-01-02 21:35:00,-1.2,0.0,29.97,NW,307,15.9,21.7,0,0.00,,---,0.00,VWS V14.00,2014-01-03 02:35:00,
2014-01-02 21:40:00,-1.2,0.0,29.97,NE,41,13.0,19.1,0,0.00,,---,0.00,VWS V14.00,2014-01-03 02:40:00,
2014-01-02 21:45:00,-1.1,0.0,29.95,NNE,31,16.3,16.3,0,0.00,,---,0.00,VWS V14.00,2014-01-03 02:45:00,
2014-01-02 21:50:00,-1.1,0.0,29.95,NNW,329,6.2,18.8,0,0.00,,---,0.00,VWS V14.00,2014-01-03 02:50:00,
2014-01-02 21:55:00,-1.4,0.0,29.95,North,352,9.9,16.6,0,0.00,,---,0.00,VWS V14.00,2014-01-03 02:55:00,
2014-01-02 22:00:00,-1.5,0.0,29.95,North,359,10.7,16.2,0,0.00,,---,0.00,VWS V14.00,2014-01-03 03:00:00,
2014-01-02 22:05:00,-1.2,0.0,29.94,North,352,12.6,19.8,0,0.00,,---,0.00,VWS V14.00,2014-01-03 03:05:00,
2014-01-02 22:10:00,-1.3,0.0,29.93,NNE,21,8.6,16.7,0,0.00,,---,0.00,VWS V14.00,2014-01-03 03:10:00,
2014-01-02 22:15:00,-1.4,0.0,29.93,NNW,333,7.6,19.1,0,0.00,,---,0.00,VWS V14.00,2014-01-03 03:15:00,
2014-01-02 22:20:00,-1.2,0.0,29.93,North,359,9.6,16.2,0,0.00,,---,0.00,VWS V14.00,2014-01-03 03:20:00,
2014-01-02 22:25:00,-1.4,0.0,29.93,NNE,17,8.8,16.3,0,0.00,,---,0.00,VWS V14.00,2014-01-03 03:25:00,
2014-01-02 22:30:00,-1.4,0.0,29.93,North,3,9.9,18.1,0,0.00,,---,0.00,VWS V14.00,2014-01-03 03:30:00,
2014-01-02 22:35:00,-1.4,0.0,29.93,NW,315,6.8,26.2,0,0.00,,---,0.00,VWS V14.00,2014-01-03 03:35:00,
2014-01-02 22:40:00,-1.4,0.0,29.93,NNE,25,8.5,18.0,0,0.00,,---,0.00,VWS V14.00,2014-01-03 03:40:00,
2014-01-02 22:45:00,-1.6,0.0,29.92,NNW,330,8.9,15.8,0,0.00,,---,0.00,VWS V14.00,2014-01-03 03:45:00,
2014-01-02 22:50:00,-1.5,0.0,29.92,NNW,346,7.9,21.1,0,0.00,,---,0.00,VWS V14.00,2014-01-03 03:50:00,
2014-01-02 22:55:00,-1.5,0.0,29.93,NW,307,8.0,18.1,0,0.00,,---,0.00,VWS V14.00,2014-01-03 03:55:00,
2014-01-02 23:00:00,-1.6,0.0,29.92,NW,309,9.7,15.2,0,0.00,,---,0.00,VWS V14.00,2014-01-03 04:00:00,
2014-01-02 23:05:00,-1.6,0.0,29.92,NNE,18,8.7,19.1,0,0.00,,---,0.00,VWS V14.00,2014-01-03 04:05:00,
2014-01-02 23:10:00,-1.6,0.0,29.93,North,0,10.1,14.7,0,0.00,,---,0.00,VWS V14.00,2014-01-03 04:10:00,
2014-01-02 23:15:00,-1.8,0.0,29.92,North,359,6.2,15.5,0,0.00,,---,0.00,VWS V14.00,2014-01-03 04:15:00,
2014-01-02 23:20:00,-1.8,0.0,29.91,West,274,8.5,18.3,0,0.00,,---,0.00,VWS V14.00,2014-01-03 04:20:00,
2014-01-02 23:25:00,-1.7,0.0,29.91,NE,45,9.2,22.0,0,0.00,,---,0.00,VWS V14.00,2014-01-03 04:25:00,
2014-01-02 23:30:00,-1.8,0.0,29.91,NNE,30,7.3,20.4,0,0.00,,---,0.00,VWS V14.00,2014-01-03 04:30:00,
2014-01-02 23:35:00,-1.7,0.0,29.91,North,7,10.5,14.7,0,0.00,,---,0.00,VWS V14.00,2014-01-03 04:35:00,
2014-01-02 23:40:00,-1.8,0.0,29.91,NNE,15,5.7,19.0,0,0.00,,---,0.00,VWS V14.00,2014-01-03 04:40:00,
2014-01-02 23:45:00,-1.7,0.0,29.91,North,359,4.7,18.5,0,0.00,,---,0.00,VWS V14.00,2014-01-03 04:45:00,